Wetterdaten: aktuell Montag, 10.08.2020 18:15
Datum Zeit Temp. Feuchte Luftdruck Nieders. Wind Richtung Richtung Sonnenschein Solar Taupunkt Windchill Windben
10.08.2020 18:15 32,1 C 45 % 1012,0 hPa 0,0 l/m 3,5 km/h (1 Bft) N-NW 334 5 min 248 W/m 18,6 C 32,1 C 12,9 km/h (3 Bft)
10.08.2020 18:10 32,3 C 43 % 1011,9 hPa 0,0 l/m 2,9 km/h (1 Bft) N-NW 337 5 min 243 W/m 18,1 C 32,3 C 12,9 km/h (3 Bft)
10.08.2020 18:05 32,3 C 40 % 1012,0 hPa 0,0 l/m 1,8 km/h (1 Bft) N-NW 329 5 min 295 W/m 16,9 C 32,3 C 8,0 km/h (2 Bft)
10.08.2020 18:00 32,2 C 41 % 1012,0 hPa 0,0 l/m 2,1 km/h (1 Bft) N-NW 339 5 min 308 W/m 17,2 C 32,2 C 8,0 km/h (2 Bft)
10.08.2020 17:55 32,2 C 41 % 1012,1 hPa 0,0 l/m 2,6 km/h (1 Bft) N-NW 336 5 min 315 W/m 17,2 C 32,2 C 12,9 km/h (3 Bft)
10.08.2020 17:50 32,0 C 39 % 1012,2 hPa 0,0 l/m 1,3 km/h (1 Bft) N-NW 330 5 min 339 W/m 16,3 C 32,0 C 8,0 km/h (2 Bft)
10.08.2020 17:45 31,9 C 40 % 1012,2 hPa 0,0 l/m 4,5 km/h (1 Bft) NW 319 5 min 353 W/m 16,6 C 31,9 C 14,5 km/h (3 Bft)
10.08.2020 17:40 31,8 C 41 % 1012,2 hPa 0,0 l/m 3,9 km/h (1 Bft) NW 309 5 min 350 W/m 16,9 C 31,8 C 14,5 km/h (3 Bft)
10.08.2020 17:35 32,0 C 41 % 1012,3 hPa 0,0 l/m 5,0 km/h (1 Bft) NW 314 5 min 359 W/m 17,1 C 32,0 C 14,5 km/h (3 Bft)
10.08.2020 17:30 31,9 C 43 % 1012,3 hPa 0,0 l/m 3,7 km/h (1 Bft) NW 325 5 min 376 W/m 17,7 C 31,9 C 12,9 km/h (3 Bft)
10.08.2020 17:25 31,8 C 44 % 1012,3 hPa 0,0 l/m 1,3 km/h (1 Bft) NW 325 5 min 366 W/m 18,0 C 31,8 C 8,0 km/h (2 Bft)
10.08.2020 17:20 31,6 C 44 % 1012,4 hPa 0,0 l/m 3,0 km/h (1 Bft) NW 310 5 min 406 W/m 17,8 C 31,6 C 14,5 km/h (3 Bft)
10.08.2020 17:15 31,3 C 45 % 1012,5 hPa 0,0 l/m 4,0 km/h (1 Bft) N-NW 328 5 min 490 W/m 17,9 C 31,3 C 12,9 km/h (3 Bft)
10.08.2020 17:10 30,9 C 46 % 1012,5 hPa 0,0 l/m 4,6 km/h (1 Bft) NW 321 5 min 466 W/m 17,9 C 30,9 C 12,9 km/h (3 Bft)
10.08.2020 17:05 30,6 C 48 % 1012,6 hPa 0,0 l/m 3,5 km/h (1 Bft) N-NW 330 5 min 510 W/m 18,3 C 30,6 C 9,7 km/h (2 Bft)
10.08.2020 17:00 30,4 C 49 % 1012,6 hPa 0,0 l/m 3,2 km/h (1 Bft) NW 311 5 min 239 W/m 18,5 C 30,4 C 9,7 km/h (2 Bft)
10.08.2020 16:55 30,3 C 50 % 1012,6 hPa 0,0 l/m 1,6 km/h (1 Bft) NW 315 5 min 199 W/m 18,7 C 30,3 C 8,0 km/h (2 Bft)
10.08.2020 16:50 30,2 C 51 % 1012,7 hPa 0,0 l/m 2,9 km/h (1 Bft) NW 315 5 min 181 W/m 18,9 C 30,2 C 8,0 km/h (2 Bft)
10.08.2020 16:45 30,1 C 52 % 1012,7 hPa 0,0 l/m 2,2 km/h (1 Bft) NW 321 5 min 178 W/m 19,1 C 30,1 C 12,9 km/h (3 Bft)
10.08.2020 16:40 30,1 C 54 % 1012,7 hPa 0,0 l/m 2,3 km/h (1 Bft) NW 319 5 min 183 W/m 19,7 C 30,1 C 12,9 km/h (3 Bft)
10.08.2020 16:35 29,9 C 54 % 1012,7 hPa 0,0 l/m 1,6 km/h (1 Bft) NW 326 5 min 236 W/m 19,6 C 29,9 C 9,7 km/h (2 Bft)
10.08.2020 16:30 29,8 C 55 % 1012,8 hPa 0,0 l/m 2,8 km/h (1 Bft) NW 315 5 min 285 W/m 19,8 C 29,8 C 8,0 km/h (2 Bft)
10.08.2020 16:25 29,7 C 56 % 1012,8 hPa 0,0 l/m 3,8 km/h (1 Bft) NW 321 5 min 283 W/m 20,0 C 29,7 C 9,7 km/h (2 Bft)
10.08.2020 16:20 29,5 C 57 % 1012,9 hPa 0,0 l/m 2,1 km/h (1 Bft) N-NW 344 5 min 272 W/m 20,1 C 29,5 C 8,0 km/h (2 Bft)
10.08.2020 16:15 29,3 C 58 % 1012,9 hPa 0,0 l/m 1,6 km/h (1 Bft) N-NW 327 5 min 265 W/m 20,2 C 29,3 C 12,9 km/h (3 Bft)
10.08.2020 16:10 29,2 C 58 % 1012,9 hPa 0,0 l/m 4,2 km/h (1 Bft) NW 314 5 min 265 W/m 20,1 C 29,2 C 8,0 km/h (2 Bft)
10.08.2020 16:05 29,0 C 58 % 1012,9 hPa 0,0 l/m 3,4 km/h (1 Bft) NW 317 5 min 265 W/m 19,9 C 29,0 C 11,3 km/h (2 Bft)
10.08.2020 16:00 28,9 C 58 % 1013,0 hPa 0,0 l/m 5,4 km/h (2 Bft) NW 317 5 min 262 W/m 19,8 C 28,9 C 12,9 km/h (3 Bft)
10.08.2020 15:55 28,9 C 58 % 1013,0 hPa 0,0 l/m 4,4 km/h (1 Bft) N-NW 329 5 min 255 W/m 19,8 C 28,9 C 12,9 km/h (3 Bft)
10.08.2020 15:50 28,9 C 58 % 1013,1 hPa 0,0 l/m 3,3 km/h (1 Bft) N-NW 334 5 min 257 W/m 19,8 C 28,9 C 12,9 km/h (3 Bft)
10.08.2020 15:45 28,8 C 57 % 1013,0 hPa 0,0 l/m 5,7 km/h (2 Bft) NW 322 5 min 265 W/m 19,4 C 28,8 C 12,9 km/h (3 Bft)
10.08.2020 15:40 28,6 C 58 % 1013,1 hPa 0,0 l/m 1,5 km/h (1 Bft) N-NW 336 5 min 260 W/m 19,5 C 28,6 C 16,1 km/h (3 Bft)
10.08.2020 15:35 28,4 C 58 % 1013,2 hPa 0,0 l/m 3,2 km/h (1 Bft) NW 319 5 min 274 W/m 19,3 C 28,4 C 9,7 km/h (2 Bft)
10.08.2020 15:30 28,2 C 60 % 1013,2 hPa 0,0 l/m 3,4 km/h (1 Bft) NW 317 5 min 276 W/m 19,7 C 28,2 C 9,7 km/h (2 Bft)
10.08.2020 15:25 28,0 C 60 % 1013,3 hPa 0,0 l/m 4,8 km/h (1 Bft) NW 304 5 min 283 W/m 19,5 C 28,0 C 14,5 km/h (3 Bft)
10.08.2020 15:20 27,8 C 61 % 1013,3 hPa 0,0 l/m 4,9 km/h (1 Bft) NW 323 5 min 292 W/m 19,6 C 27,8 C 12,9 km/h (3 Bft)
10.08.2020 15:15 27,6 C 61 % 1013,4 hPa 0,0 l/m 7,0 km/h (2 Bft) NW 315 5 min 297 W/m 19,4 C 27,5 C 14,5 km/h (3 Bft)
10.08.2020 15:10 27,5 C 62 % 1013,4 hPa 0,0 l/m 4,5 km/h (1 Bft) NW 309 5 min 283 W/m 19,6 C 27,5 C 16,1 km/h (3 Bft)
10.08.2020 15:05 27,4 C 62 % 1013,5 hPa 0,0 l/m 5,1 km/h (1 Bft) N-NW 327 5 min 283 W/m 19,5 C 27,4 C 14,5 km/h (3 Bft)
10.08.2020 15:00 27,3 C 62 % 1013,5 hPa 0,0 l/m 4,6 km/h (1 Bft) N-NW 332 5 min 279 W/m 19,4 C 27,3 C 12,9 km/h (3 Bft)
10.08.2020 14:55 27,1 C 63 % 1013,6 hPa 0,0 l/m 0,0 km/h (0 Bft) W-NW 286 5 min 274 W/m 19,4 C 27,1 C 1,6 km/h (1 Bft)
10.08.2020 14:50 26,8 C 64 % 1013,7 hPa 0,0 l/m 1,1 km/h (1 Bft) W-NW 286 5 min 264 W/m 19,4 C 26,8 C 6,4 km/h (2 Bft)
10.08.2020 14:45 26,6 C 64 % 1013,8 hPa 0,0 l/m 3,2 km/h (1 Bft) NW 313 5 min 250 W/m 19,2 C 26,6 C 8,0 km/h (2 Bft)
10.08.2020 14:40 26,5 C 64 % 1013,8 hPa 0,0 l/m 6,8 km/h (2 Bft) N-NW 327 5 min 230 W/m 19,1 C 26,4 C 16,1 km/h (3 Bft)
10.08.2020 14:35 26,4 C 64 % 1013,9 hPa 0,0 l/m 3,7 km/h (1 Bft) N-NW 331 5 min 218 W/m 19,0 C 26,4 C 16,1 km/h (3 Bft)
10.08.2020 14:30 26,3 C 65 % 1013,9 hPa 0,0 l/m 5,0 km/h (1 Bft) N-NW 337 5 min 221 W/m 19,2 C 26,3 C 11,3 km/h (2 Bft)
10.08.2020 14:25 26,3 C 65 % 1014,0 hPa 0,0 l/m 6,1 km/h (2 Bft) N-NW 327 5 min 229 W/m 19,2 C 26,3 C 14,5 km/h (3 Bft)
10.08.2020 14:20 26,3 C 66 % 1014,0 hPa 0,0 l/m 5,7 km/h (2 Bft) NW 321 5 min 241 W/m 19,4 C 26,3 C 14,5 km/h (3 Bft)
10.08.2020 14:15 26,3 C 66 % 1014,0 hPa 0,0 l/m 5,2 km/h (1 Bft) N-NW 328 5 min 251 W/m 19,4 C 26,3 C 12,9 km/h (3 Bft)
10.08.2020 14:10 26,2 C 66 % 1014,0 hPa 0,0 l/m 6,0 km/h (2 Bft) N-NW 331 5 min 237 W/m 19,3 C 26,2 C 16,1 km/h (3 Bft)
10.08.2020 14:05 26,1 C 67 % 1014,0 hPa 0,0 l/m 4,7 km/h (1 Bft) N 350 5 min 237 W/m 19,5 C 26,1 C 14,5 km/h (3 Bft)
10.08.2020 14:00 26,0 C 67 % 1014,1 hPa 0,0 l/m 4,8 km/h (1 Bft) N-NW 330 5 min 220 W/m 19,4 C 26,0 C 12,9 km/h (3 Bft)
10.08.2020 13:55 25,9 C 67 % 1014,1 hPa 0,0 l/m 3,3 km/h (1 Bft) N-NW 331 5 min 211 W/m 19,3 C 25,9 C 9,7 km/h (2 Bft)
10.08.2020 13:50 25,9 C 67 % 1014,0 hPa 0,0 l/m 2,8 km/h (1 Bft) NW 326 5 min 204 W/m 19,3 C 25,9 C 9,7 km/h (2 Bft)
10.08.2020 13:45 25,8 C 66 % 1014,1 hPa 0,0 l/m 4,2 km/h (1 Bft) N 350 5 min 199 W/m 19,0 C 25,8 C 12,9 km/h (3 Bft)
10.08.2020 13:40 25,8 C 68 % 1014,1 hPa 0,0 l/m 0,3 km/h (0 Bft) N-NW 338 5 min 179 W/m 19,4 C 25,8 C 4,8 km/h (1 Bft)
10.08.2020 13:35 25,7 C 68 % 1014,1 hPa 0,0 l/m 0,5 km/h (0 Bft) N-NW 338 5 min 165 W/m 19,3 C 25,7 C 8,0 km/h (2 Bft)
10.08.2020 13:30 25,6 C 68 % 1014,1 hPa 0,0 l/m 1,4 km/h (1 Bft) N-NW 338 5 min 156 W/m 19,2 C 25,6 C 6,4 km/h (2 Bft)
10.08.2020 13:25 25,7 C 68 % 1014,1 hPa 0,0 l/m 2,5 km/h (1 Bft) N-NW 344 0 min 149 W/m 19,3 C 25,7 C 8,0 km/h (2 Bft)
10.08.2020 13:20 25,7 C 67 % 1014,0 hPa 0,0 l/m 1,8 km/h (1 Bft) NW 325 0 min 146 W/m 19,1 C 25,7 C 9,7 km/h (2 Bft)
10.08.2020 13:15 25,8 C 67 % 1014,1 hPa 0,0 l/m 2,1 km/h (1 Bft) N 349 0 min 146 W/m 19,2 C 25,8 C 8,0 km/h (2 Bft)
10.08.2020 13:10 25,9 C 66 % 1014,0 hPa 0,0 l/m 1,3 km/h (1 Bft) N-NW 334 0 min 146 W/m 19,0 C 25,9 C 8,0 km/h (2 Bft)
10.08.2020 13:05 26,0 C 66 % 1014,0 hPa 0,0 l/m 2,4 km/h (1 Bft) NW 325 0 min 146 W/m 19,1 C 26,0 C 9,7 km/h (2 Bft)
10.08.2020 13:00 26,2 C 65 % 1013,9 hPa 0,0 l/m 2,4 km/h (1 Bft) N-NW 346 0 min 149 W/m 19,1 C 26,2 C 12,9 km/h (3 Bft)
10.08.2020 12:55 26,3 C 64 % 1013,9 hPa 0,0 l/m 0,7 km/h (0 Bft) N-NW 337 5 min 156 W/m 18,9 C 26,3 C 4,8 km/h (1 Bft)
10.08.2020 12:50 26,4 C 63 % 1013,9 hPa 0,0 l/m 1,2 km/h (1 Bft) N-NW 334 5 min 167 W/m 18,8 C 26,4 C 8,0 km/h (2 Bft)
10.08.2020 12:45 26,8 C 62 % 1013,9 hPa 0,0 l/m 4,0 km/h (1 Bft) N-NW 342 5 min 176 W/m 18,9 C 26,8 C 9,7 km/h (2 Bft)
10.08.2020 12:40 27,6 C 59 % 1013,9 hPa 0,0 l/m 5,5 km/h (2 Bft) N-NW 348 5 min 174 W/m 18,8 C 27,6 C 12,9 km/h (3 Bft)
10.08.2020 12:35 29,1 C 55 % 1013,9 hPa 0,0 l/m 5,9 km/h (2 Bft) N 355 5 min 178 W/m 19,1 C 29,1 C 17,7 km/h (3 Bft)
10.08.2020 12:30 30,0 C 45 % 1013,9 hPa 0,0 l/m 0,3 km/h (0 Bft) W 267 5 min 178 W/m 16,7 C 30,0 C 8,0 km/h (2 Bft)
10.08.2020 12:25 29,9 C 43 % 1013,7 hPa 0,0 l/m 6,8 km/h (2 Bft) O-SO 118 5 min 181 W/m 15,9 C 29,9 C 12,9 km/h (3 Bft)
10.08.2020 12:20 29,9 C 44 % 1013,7 hPa 0,0 l/m 2,9 km/h (1 Bft) SO 145 5 min 188 W/m 16,3 C 29,9 C 12,9 km/h (3 Bft)
10.08.2020 12:15 29,9 C 45 % 1013,7 hPa 0,0 l/m 2,8 km/h (1 Bft) SO 134 5 min 193 W/m 16,7 C 29,9 C 12,9 km/h (3 Bft)
10.08.2020 12:10 29,8 C 46 % 1013,8 hPa 0,0 l/m 2,6 km/h (1 Bft) O-SO 123 5 min 200 W/m 16,9 C 29,8 C 8,0 km/h (2 Bft)
10.08.2020 12:05 29,7 C 47 % 1013,7 hPa 0,0 l/m 0,6 km/h (0 Bft) O-SO 123 5 min 216 W/m 17,2 C 29,7 C 8,0 km/h (2 Bft)
10.08.2020 12:00 29,7 C 47 % 1013,7 hPa 0,0 l/m 2,0 km/h (1 Bft) O-SO 122 5 min 244 W/m 17,2 C 29,7 C 8,0 km/h (2 Bft)
10.08.2020 11:55 29,6 C 46 % 1013,8 hPa 0,0 l/m 2,5 km/h (1 Bft) SO 127 5 min 262 W/m 16,7 C 29,6 C 16,1 km/h (3 Bft)
10.08.2020 11:50 29,5 C 46 % 1013,9 hPa 0,0 l/m 2,4 km/h (1 Bft) SO 131 5 min 265 W/m 16,6 C 29,5 C 12,9 km/h (3 Bft)
10.08.2020 11:45 29,4 C 46 % 1013,9 hPa 0,0 l/m 5,2 km/h (1 Bft) O 97 5 min 272 W/m 16,5 C 29,4 C 16,1 km/h (3 Bft)
10.08.2020 11:40 29,4 C 47 % 1013,9 hPa 0,0 l/m 1,3 km/h (1 Bft) O-SO 122 5 min 285 W/m 16,9 C 29,4 C 12,9 km/h (3 Bft)
10.08.2020 11:35 29,3 C 48 % 1013,9 hPa 0,0 l/m 0,0 km/h (0 Bft) O-SO 109 5 min 287 W/m 17,1 C 29,3 C 0,0 km/h (0 Bft)
10.08.2020 11:30 29,3 C 47 % 1014,0 hPa 0,0 l/m 0,3 km/h (0 Bft) O-SO 109 5 min 299 W/m 16,8 C 29,3 C 6,4 km/h (2 Bft)
10.08.2020 11:25 29,2 C 48 % 1014,1 hPa 0,0 l/m 0,5 km/h (0 Bft) O-SO 109 5 min 287 W/m 17,0 C 29,2 C 9,7 km/h (2 Bft)
10.08.2020 11:20 29,3 C 47 % 1014,1 hPa 0,0 l/m 3,3 km/h (1 Bft) O-SO 107 5 min 297 W/m 16,8 C 29,3 C 14,5 km/h (3 Bft)
10.08.2020 11:15 29,4 C 47 % 1014,2 hPa 0,0 l/m 4,9 km/h (1 Bft) O 98 5 min 330 W/m 16,9 C 29,4 C 17,7 km/h (3 Bft)
10.08.2020 11:10 29,6 C 46 % 1014,2 hPa 0,0 l/m 1,6 km/h (1 Bft) SO 134 5 min 364 W/m 16,7 C 29,6 C 11,3 km/h (2 Bft)
10.08.2020 11:05 29,6 C 46 % 1014,2 hPa 0,0 l/m 4,4 km/h (1 Bft) O-SO 115 5 min 566 W/m 16,7 C 29,6 C 12,9 km/h (3 Bft)
10.08.2020 11:00 29,6 C 47 % 1014,2 hPa 0,0 l/m 5,5 km/h (2 Bft) SO 135 5 min 638 W/m 17,1 C 29,6 C 16,1 km/h (3 Bft)
10.08.2020 10:55 29,2 C 48 % 1014,2 hPa 0,0 l/m 5,2 km/h (1 Bft) SO 125 5 min 759 W/m 17,0 C 29,2 C 14,5 km/h (3 Bft)
10.08.2020 10:50 29,3 C 47 % 1014,3 hPa 0,0 l/m 2,8 km/h (1 Bft) O 94 5 min 494 W/m 16,8 C 29,3 C 11,3 km/h (2 Bft)
10.08.2020 10:45 29,4 C 47 % 1014,2 hPa 0,0 l/m 3,7 km/h (1 Bft) O-SO 114 5 min 490 W/m 16,9 C 29,4 C 14,5 km/h (3 Bft)
10.08.2020 10:40 29,2 C 49 % 1014,2 hPa 0,0 l/m 6,2 km/h (2 Bft) SO 128 5 min 545 W/m 17,4 C 29,2 C 17,7 km/h (3 Bft)
10.08.2020 10:35 28,8 C 48 % 1014,2 hPa 0,0 l/m 8,8 km/h (2 Bft) SO 126 5 min 715 W/m 16,7 C 28,5 C 22,5 km/h (4 Bft)
10.08.2020 10:30 28,6 C 49 % 1014,3 hPa 0,0 l/m 5,5 km/h (2 Bft) O-SO 116 5 min 664 W/m 16,8 C 28,6 C 16,1 km/h (3 Bft)
10.08.2020 10:25 28,5 C 49 % 1014,4 hPa 0,0 l/m 8,1 km/h (2 Bft) O-SO 121 5 min 513 W/m 16,7 C 28,3 C 19,3 km/h (3 Bft)
10.08.2020 10:20 28,4 C 51 % 1014,3 hPa 0,0 l/m 2,3 km/h (1 Bft) O-SO 116 5 min 306 W/m 17,3 C 28,4 C 12,9 km/h (3 Bft)
10.08.2020 10:15 28,1 C 52 % 1014,3 hPa 0,0 l/m 1,9 km/h (1 Bft) O-SO 110 5 min 308 W/m 17,3 C 28,1 C 6,4 km/h (2 Bft)
10.08.2020 10:10 27,8 C 53 % 1014,2 hPa 0,0 l/m 0,1 km/h (0 Bft) S-SO 159 5 min 292 W/m 17,3 C 27,8 C 1,6 km/h (1 Bft)
10.08.2020 10:05 27,6 C 54 % 1014,3 hPa 0,0 l/m 0,6 km/h (0 Bft) S-SO 159 5 min 271 W/m 17,4 C 27,6 C 6,4 km/h (2 Bft)
10.08.2020 10:00 27,3 C 55 % 1014,3 hPa 0,0 l/m 0,0 km/h (0 Bft) W 259 5 min 258 W/m 17,4 C 27,3 C 0,0 km/h (0 Bft)
10.08.2020 09:55 27,2 C 56 % 1014,3 hPa 0,0 l/m 1,2 km/h (1 Bft) W 259 5 min 258 W/m 17,6 C 27,2 C 4,8 km/h (1 Bft)
10.08.2020 09:50 27,2 C 57 % 1014,3 hPa 0,0 l/m 0,0 km/h (0 Bft) W 260 5 min 239 W/m 17,9 C 27,2 C 1,6 km/h (1 Bft)
10.08.2020 09:45 27,1 C 57 % 1014,3 hPa 0,0 l/m 0,0 km/h (0 Bft) W-NW 288 5 min 225 W/m 17,8 C 27,1 C 1,6 km/h (1 Bft)
10.08.2020 09:40 27,0 C 58 % 1014,4 hPa 0,0 l/m 1,4 km/h (1 Bft) W-NW 288 5 min 230 W/m 18,0 C 27,0 C 9,7 km/h (2 Bft)
10.08.2020 09:35 26,7 C 60 % 1014,3 hPa 0,0 l/m 0,4 km/h (0 Bft) SW 236 5 min 490 W/m 18,3 C 26,7 C 4,8 km/h (1 Bft)
10.08.2020 09:30 26,2 C 63 % 1014,4 hPa 0,0 l/m 0,0 km/h (0 Bft) NW 321 5 min 517 W/m 18,6 C 26,2 C 0,0 km/h (0 Bft)
10.08.2020 09:25 25,9 C 61 % 1014,4 hPa 0,0 l/m 0,0 km/h (0 Bft) NW 321 5 min 473 W/m 17,8 C 25,9 C 1,6 km/h (1 Bft)
10.08.2020 09:20 25,7 C 64 % 1014,4 hPa 0,0 l/m 1,0 km/h (0 Bft) NW 321 5 min 445 W/m 18,4 C 25,7 C 8,0 km/h (2 Bft)
10.08.2020 09:15 25,4 C 64 % 1014,5 hPa 0,0 l/m 3,3 km/h (1 Bft) NW 318 5 min 427 W/m 18,1 C 25,4 C 8,0 km/h (2 Bft)
10.08.2020 09:10 25,2 C 64 % 1014,5 hPa 0,0 l/m 1,6 km/h (1 Bft) N-NW 329 5 min 420 W/m 17,9 C 25,2 C 6,4 km/h (2 Bft)
10.08.2020 09:05 24,9 C 65 % 1014,4 hPa 0,0 l/m 2,3 km/h (1 Bft) N-NW 330 5 min 404 W/m 17,9 C 24,9 C 8,0 km/h (2 Bft)
10.08.2020 09:00 24,8 C 66 % 1014,4 hPa 0,0 l/m 3,0 km/h (1 Bft) N-NW 340 5 min 387 W/m 18,0 C 24,8 C 6,4 km/h (2 Bft)
10.08.2020 08:55 24,6 C 66 % 1014,4 hPa 0,0 l/m 2,8 km/h (1 Bft) N-NW 345 5 min 369 W/m 17,8 C 24,6 C 9,7 km/h (2 Bft)
10.08.2020 08:50 24,3 C 66 % 1014,4 hPa 0,0 l/m 1,8 km/h (1 Bft) N-NW 334 5 min 366 W/m 17,5 C 24,3 C 8,0 km/h (2 Bft)
10.08.2020 08:45 24,2 C 66 % 1014,4 hPa 0,0 l/m 2,6 km/h (1 Bft) SO 142 5 min 162 W/m 17,4 C 24,2 C 6,4 km/h (2 Bft)
10.08.2020 08:40 24,3 C 66 % 1014,4 hPa 0,0 l/m 0,0 km/h (0 Bft) SO 140 0 min 148 W/m 17,5 C 24,3 C 0,0 km/h (0 Bft)
10.08.2020 08:35 24,3 C 65 % 1014,3 hPa 0,0 l/m 0,0 km/h (0 Bft) SO 138 0 min 114 W/m 17,3 C 24,3 C 0,0 km/h (0 Bft)
10.08.2020 08:30 24,2 C 65 % 1014,3 hPa 0,0 l/m 0,0 km/h (0 Bft) SO 140 0 min 88 W/m 17,2 C 24,2 C 0,0 km/h (0 Bft)
10.08.2020 08:25 24,1 C 65 % 1014,2 hPa 0,0 l/m 0,0 km/h (0 Bft) SO 139 0 min 77 W/m 17,1 C 24,1 C 0,0 km/h (0 Bft)
10.08.2020 08:20 24,0 C 66 % 1014,2 hPa 0,0 l/m 0,0 km/h (0 Bft) SO 140 0 min 70 W/m 17,2 C 24,0 C 0,0 km/h (0 Bft)
10.08.2020 08:15 24,0 C 66 % 1014,1 hPa 0,0 l/m 0,0 km/h (0 Bft) SO 138 0 min 60 W/m 17,2 C 24,0 C 0,0 km/h (0 Bft)
10.08.2020 08:10 23,9 C 66 % 1014,1 hPa 0,0 l/m 0,0 km/h (0 Bft) SO 139 0 min 56 W/m 17,1 C 23,9 C 0,0 km/h (0 Bft)
10.08.2020 08:05 23,9 C 66 % 1014,2 hPa 0,0 l/m 0,0 km/h (0 Bft) SO 139 0 min 47 W/m 17,1 C 23,9 C 0,0 km/h (0 Bft)
10.08.2020 08:00 23,9 C 66 % 1014,2 hPa 0,0 l/m 0,0 km/h (0 Bft) SO 139 0 min 47 W/m 17,1 C 23,9 C 0,0 km/h (0 Bft)
10.08.2020 07:55 23,8 C 66 % 1014,2 hPa 0,0 l/m 0,0 km/h (0 Bft) SO 139 0 min 47 W/m 17,1 C 23,8 C 0,0 km/h (0 Bft)
10.08.2020 07:50 23,8 C 67 % 1014,2 hPa 0,0 l/m 0,0 km/h (0 Bft) SO 139 0 min 56 W/m 17,3 C 23,8 C 0,0 km/h (0 Bft)
10.08.2020 07:45 23,6 C 67 % 1014,2 hPa 0,0 l/m 0,0 km/h (0 Bft) SO 139 0 min 56 W/m 17,1 C 23,6 C 1,6 km/h (1 Bft)
10.08.2020 07:40 23,5 C 67 % 1014,2 hPa 0,0 l/m 0,0 km/h (0 Bft) SO 138 0 min 53 W/m 17,0 C 23,5 C 0,0 km/h (0 Bft)
10.08.2020 07:35 23,4 C 68 % 1014,2 hPa 0,0 l/m 0,1 km/h (0 Bft) SO 139 0 min 53 W/m 17,1 C 23,4 C 3,2 km/h (1 Bft)
10.08.2020 07:30 23,3 C 68 % 1014,2 hPa 0,0 l/m 0,1 km/h (0 Bft) NW 306 0 min 53 W/m 17,1 C 23,3 C 4,8 km/h (1 Bft)
10.08.2020 07:25 23,2 C 68 % 1014,2 hPa 0,0 l/m 0,3 km/h (0 Bft) NW 308 0 min 47 W/m 17,0 C 23,2 C 6,4 km/h (2 Bft)
10.08.2020 07:20 23,1 C 68 % 1014,2 hPa 0,0 l/m 0,0 km/h (0 Bft) NW 307 0 min 46 W/m 16,9 C 23,1 C 0,0 km/h (0 Bft)
10.08.2020 07:15 23,1 C 69 % 1014,1 hPa 0,0 l/m 0,0 km/h (0 Bft) NW 309 0 min 40 W/m 17,1 C 23,1 C 0,0 km/h (0 Bft)
10.08.2020 07:10 23,0 C 69 % 1014,1 hPa 0,0 l/m 0,0 km/h (0 Bft) NW 309 0 min 42 W/m 17,0 C 23,0 C 1,6 km/h (1 Bft)
10.08.2020 07:05 22,9 C 69 % 1014,1 hPa 0,0 l/m 0,0 km/h (0 Bft) NW 309 0 min 49 W/m 16,9 C 22,9 C 1,6 km/h (1 Bft)
10.08.2020 07:00 22,8 C 69 % 1014,2 hPa 0,0 l/m 1,2 km/h (1 Bft) N-NW 331 0 min 49 W/m 16,8 C 22,8 C 8,0 km/h (2 Bft)
10.08.2020 06:55 22,7 C 70 % 1014,2 hPa 0,0 l/m 0,2 km/h (0 Bft) NW 319 0 min 44 W/m 16,9 C 22,7 C 3,2 km/h (1 Bft)
10.08.2020 06:50 22,7 C 70 % 1014,2 hPa 0,0 l/m 0,0 km/h (0 Bft) NW 319 0 min 35 W/m 16,9 C 22,7 C 1,6 km/h (1 Bft)
10.08.2020 06:45 22,6 C 70 % 1014,2 hPa 0,0 l/m 0,5 km/h (0 Bft) NW 320 0 min 26 W/m 16,8 C 22,6 C 6,4 km/h (2 Bft)
10.08.2020 06:40 22,6 C 70 % 1014,3 hPa 0,0 l/m 0,8 km/h (0 Bft) NW 320 0 min 18 W/m 16,8 C 22,6 C 4,8 km/h (1 Bft)
10.08.2020 06:35 22,4 C 70 % 1014,3 hPa 0,0 l/m 1,4 km/h (1 Bft) NW 325 0 min 14 W/m 16,7 C 22,4 C 8,0 km/h (2 Bft)
10.08.2020 06:30 22,2 C 70 % 1014,3 hPa 0,0 l/m 0,3 km/h (0 Bft) NW 326 0 min 9 W/m 16,5 C 22,2 C 3,2 km/h (1 Bft)
10.08.2020 06:25 22,1 C 71 % 1014,2 hPa 0,0 l/m 0,0 km/h (0 Bft) N-NW 327 0 min 5 W/m 16,6 C 22,1 C 0,0 km/h (0 Bft)
10.08.2020 06:20 22,1 C 71 % 1014,2 hPa 0,0 l/m 0,0 km/h (0 Bft) N-NW 327 0 min 0 W/m 16,6 C 22,1 C 0,0 km/h (0 Bft)
10.08.2020 06:15 22,0 C 71 % 1014,2 hPa 0,0 l/m 0,2 km/h (0 Bft) N-NW 327 0 min 0 W/m 16,5 C 22,0 C 3,2 km/h (1 Bft)
10.08.2020 06:10 21,9 C 71 % 1014,2 hPa 0,0 l/m 0,0 km/h (0 Bft) N-NW 328 0 min 0 W/m 16,4 C 21,9 C 0,0 km/h (0 Bft)
10.08.2020 06:05 21,8 C 71 % 1014,2 hPa 0,0 l/m 0,0 km/h (0 Bft) N-NW 327 0 min 0 W/m 16,3 C 21,8 C 0,0 km/h (0 Bft)
10.08.2020 05:55 21,7 C 71 % 1014,3 hPa 0,0 l/m 0,0 km/h (0 Bft) N 0 0 min 0 W/m 16,2 C 21,7 C 0,0 km/h (0 Bft)
10.08.2020 05:50 21,7 C 71 % 1014,4 hPa 0,0 l/m 0,0 km/h (0 Bft) N 0 0 min 0 W/m 16,2 C 21,7 C 0,0 km/h (0 Bft)
10.08.2020 05:45 21,7 C 71 % 1014,3 hPa 0,0 l/m 0,0 km/h (0 Bft) N 0 0 min 0 W/m 16,2 C 21,7 C 0,0 km/h (0 Bft)
10.08.2020 05:40 21,7 C 71 % 1014,3 hPa 0,0 l/m 0,0 km/h (0 Bft) N 0 0 min 0 W/m 16,2 C 21,7 C 0,0 km/h (0 Bft)
10.08.2020 05:35 21,6 C 72 % 1014,3 hPa 0,0 l/m 0,0 km/h (0 Bft) N-NW 337 0 min 0 W/m 16,3 C 21,6 C 1,6 km/h (1 Bft)
10.08.2020 05:30 21,6 C 72 % 1014,3 hPa 0,0 l/m 0,0 km/h (0 Bft) N-NW 337 0 min 0 W/m 16,3 C 21,6 C 3,2 km/h (1 Bft)
10.08.2020 05:25 21,5 C 72 % 1014,3 hPa 0,0 l/m 0,0 km/h (0 Bft) N-NW 337 0 min 0 W/m 16,2 C 21,5 C 3,2 km/h (1 Bft)
10.08.2020 05:20 21,5 C 72 % 1014,3 hPa 0,0 l/m 0,0 km/h (0 Bft) N-NW 337 0 min 0 W/m 16,2 C 21,5 C 1,6 km/h (1 Bft)
10.08.2020 05:15 21,5 C 72 % 1014,2 hPa 0,0 l/m 0,0 km/h (0 Bft) N 0 0 min 0 W/m 16,2 C 21,5 C 0,0 km/h (0 Bft)
10.08.2020 05:10 21,4 C 72 % 1014,3 hPa 0,0 l/m 0,0 km/h (0 Bft) N 0 0 min 0 W/m 16,1 C 21,4 C 0,0 km/h (0 Bft)
10.08.2020 05:05 21,4 C 72 % 1014,3 hPa 0,0 l/m 0,0 km/h (0 Bft) N-NW 337 0 min 0 W/m 16,1 C 21,4 C 1,6 km/h (1 Bft)
10.08.2020 05:00 21,3 C 72 % 1014,2 hPa 0,0 l/m 0,0 km/h (0 Bft) N-NW 337 0 min 0 W/m 16,0 C 21,3 C 1,6 km/h (1 Bft)
10.08.2020 04:55 21,2 C 72 % 1014,2 hPa 0,0 l/m 0,0 km/h (0 Bft) N 0 0 min 0 W/m 15,9 C 21,2 C 0,0 km/h (0 Bft)
10.08.2020 04:50 21,1 C 73 % 1014,2 hPa 0,0 l/m 0,0 km/h (0 Bft) N-NW 337 0 min 0 W/m 16,1 C 21,1 C 1,6 km/h (1 Bft)
10.08.2020 04:45 21,1 C 73 % 1014,2 hPa 0,0 l/m 0,0 km/h (0 Bft) N 0 0 min 0 W/m 16,1 C 21,1 C 0,0 km/h (0 Bft)
10.08.2020 04:40 21,1 C 73 % 1014,3 hPa 0,0 l/m 0,0 km/h (0 Bft) N 0 0 min 0 W/m 16,1 C 21,1 C 0,0 km/h (0 Bft)
10.08.2020 04:35 21,1 C 73 % 1014,2 hPa 0,0 l/m 0,0 km/h (0 Bft) N 0 0 min 0 W/m 16,1 C 21,1 C 0,0 km/h (0 Bft)
10.08.2020 04:30 21,1 C 73 % 1014,2 hPa 0,0 l/m 0,0 km/h (0 Bft) N 0 0 min 0 W/m 16,1 C 21,1 C 0,0 km/h (0 Bft)
10.08.2020 04:25 20,9 C 73 % 1014,2 hPa 0,0 l/m 0,0 km/h (0 Bft) N 0 0 min 0 W/m 15,9 C 20,9 C 0,0 km/h (0 Bft)
10.08.2020 04:20 20,9 C 73 % 1014,1 hPa 0,0 l/m 0,0 km/h (0 Bft) N 0 0 min 0 W/m 15,9 C 20,9 C 0,0 km/h (0 Bft)
10.08.2020 04:15 20,9 C 73 % 1014,0 hPa 0,0 l/m 0,0 km/h (0 Bft) N 0 0 min 0 W/m 15,9 C 20,9 C 0,0 km/h (0 Bft)
10.08.2020 04:10 20,9 C 73 % 1014,1 hPa 0,0 l/m 0,0 km/h (0 Bft) N 0 0 min 0 W/m 15,9 C 20,9 C 0,0 km/h (0 Bft)
10.08.2020 04:05 20,8 C 73 % 1014,1 hPa 0,0 l/m 0,0 km/h (0 Bft) N 0 0 min 0 W/m 15,8 C 20,8 C 0,0 km/h (0 Bft)
10.08.2020 04:00 20,7 C 73 % 1014,1 hPa 0,0 l/m 0,0 km/h (0 Bft) N 0 0 min 0 W/m 15,7 C 20,7 C 0,0 km/h (0 Bft)
10.08.2020 03:55 20,6 C 74 % 1014,1 hPa 0,0 l/m 0,0 km/h (0 Bft) N 0 0 min 0 W/m 15,8 C 20,6 C 0,0 km/h (0 Bft)
10.08.2020 03:50 20,6 C 74 % 1014,1 hPa 0,0 l/m 0,0 km/h (0 Bft) N 0 0 min 0 W/m 15,8 C 20,6 C 0,0 km/h (0 Bft)
10.08.2020 03:45 20,5 C 74 % 1014,1 hPa 0,0 l/m 0,0 km/h (0 Bft) N 0 0 min 0 W/m 15,7 C 20,5 C 0,0 km/h (0 Bft)
10.08.2020 03:40 20,6 C 73 % 1014,1 hPa 0,0 l/m 0,0 km/h (0 Bft) N 0 0 min 0 W/m 15,6 C 20,6 C 0,0 km/h (0 Bft)
10.08.2020 03:35 20,7 C 72 % 1014,1 hPa 0,0 l/m 0,0 km/h (0 Bft) N 0 0 min 0 W/m 15,5 C 20,7 C 0,0 km/h (0 Bft)
10.08.2020 03:30 20,9 C 72 % 1014,1 hPa 0,0 l/m 0,0 km/h (0 Bft) N 0 0 min 0 W/m 15,7 C 20,9 C 0,0 km/h (0 Bft)
10.08.2020 03:25 20,9 C 71 % 1014,1 hPa 0,0 l/m 0,0 km/h (0 Bft) N 0 0 min 0 W/m 15,4 C 20,9 C 0,0 km/h (0 Bft)
10.08.2020 03:20 21,1 C 71 % 1014,1 hPa 0,0 l/m 0,0 km/h (0 Bft) N 0 0 min 0 W/m 15,6 C 21,1 C 0,0 km/h (0 Bft)
10.08.2020 03:15 21,3 C 70 % 1014,1 hPa 0,0 l/m 0,0 km/h (0 Bft) N 0 0 min 0 W/m 15,6 C 21,3 C 0,0 km/h (0 Bft)
10.08.2020 03:10 21,6 C 69 % 1014,1 hPa 0,0 l/m 0,0 km/h (0 Bft) N 0 0 min 0 W/m 15,7 C 21,6 C 0,0 km/h (0 Bft)
10.08.2020 03:05 21,8 C 69 % 1014,1 hPa 0,0 l/m 0,0 km/h (0 Bft) N 0 0 min 0 W/m 15,9 C 21,8 C 0,0 km/h (0 Bft)
10.08.2020 03:00 21,9 C 68 % 1014,1 hPa 0,0 l/m 0,0 km/h (0 Bft) N 0 0 min 0 W/m 15,7 C 21,9 C 0,0 km/h (0 Bft)
10.08.2020 02:55 21,9 C 68 % 1014,0 hPa 0,0 l/m 0,0 km/h (0 Bft) N 0 0 min 0 W/m 15,7 C 21,9 C 0,0 km/h (0 Bft)
10.08.2020 02:50 21,8 C 68 % 1014,0 hPa 0,0 l/m 0,0 km/h (0 Bft) N-NW 337 0 min 0 W/m 15,6 C 21,8 C 4,8 km/h (1 Bft)
10.08.2020 02:45 21,8 C 69 % 1013,9 hPa 0,0 l/m 0,0 km/h (0 Bft) N-NW 337 0 min 0 W/m 15,9 C 21,8 C 4,8 km/h (1 Bft)
10.08.2020 02:40 21,9 C 68 % 1013,9 hPa 0,0 l/m 0,0 km/h (0 Bft) N 0 0 min 0 W/m 15,7 C 21,9 C 0,0 km/h (0 Bft)
10.08.2020 02:35 22,2 C 67 % 1013,9 hPa 0,0 l/m 0,0 km/h (0 Bft) N 0 0 min 0 W/m 15,8 C 22,2 C 0,0 km/h (0 Bft)
10.08.2020 02:30 22,3 C 67 % 1014,1 hPa 0,0 l/m 0,0 km/h (0 Bft) N 0 0 min 0 W/m 15,9 C 22,3 C 0,0 km/h (0 Bft)
10.08.2020 02:25 22,3 C 67 % 1014,2 hPa 0,0 l/m 0,0 km/h (0 Bft) N 0 0 min 0 W/m 15,9 C 22,3 C 0,0 km/h (0 Bft)
10.08.2020 02:20 22,3 C 67 % 1014,2 hPa 0,0 l/m 0,0 km/h (0 Bft) N 0 0 min 0 W/m 15,9 C 22,3 C 0,0 km/h (0 Bft)
10.08.2020 02:15 22,4 C 67 % 1014,3 hPa 0,0 l/m 0,0 km/h (0 Bft) N 0 0 min 0 W/m 16,0 C 22,4 C 0,0 km/h (0 Bft)
10.08.2020 02:10 22,5 C 66 % 1014,4 hPa 0,0 l/m 0,0 km/h (0 Bft) N 0 0 min 0 W/m 15,8 C 22,5 C 0,0 km/h (0 Bft)
10.08.2020 02:05 22,6 C 66 % 1014,4 hPa 0,0 l/m 0,0 km/h (0 Bft) N 0 0 min 0 W/m 15,9 C 22,6 C 0,0 km/h (0 Bft)
10.08.2020 02:00 22,6 C 65 % 1014,5 hPa 0,0 l/m 0,0 km/h (0 Bft) N 0 0 min 0 W/m 15,7 C 22,6 C 0,0 km/h (0 Bft)
10.08.2020 01:55 22,7 C 65 % 1014,6 hPa 0,0 l/m 0,0 km/h (0 Bft) N 0 0 min 0 W/m 15,8 C 22,7 C 0,0 km/h (0 Bft)
10.08.2020 01:50 22,7 C 65 % 1014,6 hPa 0,0 l/m 0,0 km/h (0 Bft) N 0 0 min 0 W/m 15,8 C 22,7 C 0,0 km/h (0 Bft)
10.08.2020 01:45 22,8 C 65 % 1014,5 hPa 0,0 l/m 0,0 km/h (0 Bft) N 0 0 min 0 W/m 15,9 C 22,8 C 0,0 km/h (0 Bft)
10.08.2020 01:40 22,9 C 64 % 1014,5 hPa 0,0 l/m 0,0 km/h (0 Bft) N 0 0 min 0 W/m 15,7 C 22,9 C 0,0 km/h (0 Bft)
10.08.2020 01:35 23,0 C 64 % 1014,4 hPa 0,0 l/m 1,6 km/h (1 Bft) N-NW 337 0 min 0 W/m 15,8 C 23,0 C 6,4 km/h (2 Bft)
10.08.2020 01:30 23,1 C 63 % 1014,3 hPa 0,0 l/m 0,0 km/h (0 Bft) N 0 0 min 0 W/m 15,7 C 23,1 C 0,0 km/h (0 Bft)
10.08.2020 01:25 23,2 C 63 % 1014,3 hPa 0,0 l/m 0,0 km/h (0 Bft) N-NW 337 0 min 0 W/m 15,8 C 23,2 C 8,0 km/h (2 Bft)
10.08.2020 01:20 23,2 C 63 % 1014,4 hPa 0,0 l/m 0,0 km/h (0 Bft) N-NW 337 0 min 0 W/m 15,8 C 23,2 C 8,0 km/h (2 Bft)
10.08.2020 01:15 23,2 C 63 % 1014,5 hPa 0,0 l/m 3,2 km/h (1 Bft) NW 315 0 min 0 W/m 15,8 C 23,2 C 9,7 km/h (2 Bft)
10.08.2020 01:10 23,2 C 63 % 1014,5 hPa 0,0 l/m 0,0 km/h (0 Bft) W-NW 292 0 min 0 W/m 15,8 C 23,2 C 4,8 km/h (1 Bft)
10.08.2020 01:05 23,3 C 63 % 1014,7 hPa 0,0 l/m 0,0 km/h (0 Bft) N 0 0 min 0 W/m 15,9 C 23,3 C 0,0 km/h (0 Bft)
10.08.2020 01:00 23,3 C 63 % 1014,9 hPa 0,0 l/m 0,0 km/h (0 Bft) N 0 0 min 0 W/m 15,9 C 23,3 C 0,0 km/h (0 Bft)
10.08.2020 00:55 23,3 C 63 % 1014,8 hPa 0,0 l/m 0,0 km/h (0 Bft) W-NW 292 0 min 0 W/m 15,9 C 23,3 C 6,4 km/h (2 Bft)
10.08.2020 00:50 23,3 C 63 % 1014,9 hPa 0,0 l/m 0,0 km/h (0 Bft) N 0 0 min 0 W/m 15,9 C 23,3 C 0,0 km/h (0 Bft)
10.08.2020 00:45 23,4 C 62 % 1014,9 hPa 0,0 l/m 0,0 km/h (0 Bft) W-NW 292 0 min 0 W/m 15,7 C 23,4 C 1,6 km/h (1 Bft)
10.08.2020 00:40 23,6 C 63 % 1014,8 hPa 0,0 l/m 0,0 km/h (0 Bft) N 0 0 min 0 W/m 16,1 C 23,6 C 0,0 km/h (0 Bft)
10.08.2020 00:35 23,7 C 62 % 1014,8 hPa 0,0 l/m 0,0 km/h (0 Bft) N 0 0 min 0 W/m 16,0 C 23,7 C 0,0 km/h (0 Bft)
10.08.2020 00:30 23,7 C 62 % 1014,9 hPa 0,0 l/m 0,0 km/h (0 Bft) N 0 0 min 0 W/m 16,0 C 23,7 C 0,0 km/h (0 Bft)
10.08.2020 00:25 23,6 C 62 % 1014,8 hPa 0,0 l/m 0,0 km/h (0 Bft) N 0 0 min 0 W/m 15,9 C 23,6 C 0,0 km/h (0 Bft)
10.08.2020 00:20 23,6 C 62 % 1014,6 hPa 0,0 l/m 0,0 km/h (0 Bft) N 0 0 min 0 W/m 15,9 C 23,6 C 0,0 km/h (0 Bft)
10.08.2020 00:15 23,5 C 62 % 1014,4 hPa 0,0 l/m 0,0 km/h (0 Bft) W-NW 292 0 min 0 W/m 15,8 C 23,5 C 1,6 km/h (1 Bft)
10.08.2020 00:10 23,4 C 63 % 1014,4 hPa 0,0 l/m 0,0 km/h (0 Bft) W-NW 292 0 min 0 W/m 15,9 C 23,4 C 6,4 km/h (2 Bft)
10.08.2020 00:05 23,3 C 63 % 1014,3 hPa 0,0 l/m 0,0 km/h (0 Bft) W-NW 292 0 min 0 W/m 15,9 C 23,3 C 1,6 km/h (1 Bft)
10.08.2020 00:00 23,3 C 63 % 1014,3 hPa 0,0 l/m 0,0 km/h (0 Bft) W-NW 292 0 min 0 W/m 15,9 C 23,3 C 1,6 km/h (1 Bft)
09.08.2020 23:55 23,3 C 63 % 1014,3 hPa 0,0 l/m 0,0 km/h (0 Bft) W-NW 292 0 min 0 W/m 15,9 C 23,3 C 1,6 km/h (1 Bft)
09.08.2020 23:50 23,2 C 63 % 1014,4 hPa 0,0 l/m 0,0 km/h (0 Bft) W-NW 292 0 min 0 W/m 15,8 C 23,2 C 4,8 km/h (1 Bft)
09.08.2020 23:45 23,2 C 63 % 1014,4 hPa 0,0 l/m 0,0 km/h (0 Bft) W-NW 292 0 min 0 W/m 15,8 C 23,2 C 4,8 km/h (1 Bft)
09.08.2020 23:40 23,1 C 63 % 1014,5 hPa 0,0 l/m 0,0 km/h (0 Bft) W-NW 292 0 min 0 W/m 15,7 C 23,1 C 1,6 km/h (1 Bft)
09.08.2020 23:35 23,1 C 63 % 1014,5 hPa 0,0 l/m 0,0 km/h (0 Bft) W-NW 292 0 min 0 W/m 15,7 C 23,1 C 3,2 km/h (1 Bft)
09.08.2020 23:30 23,0 C 63 % 1014,5 hPa 0,0 l/m 0,0 km/h (0 Bft) N 0 0 min 0 W/m 15,6 C 23,0 C 0,0 km/h (0 Bft)
09.08.2020 23:25 22,9 C 63 % 1014,5 hPa 0,0 l/m 0,0 km/h (0 Bft) N 0 0 min 0 W/m 15,5 C 22,9 C 0,0 km/h (0 Bft)
09.08.2020 23:20 22,9 C 63 % 1014,5 hPa 0,0 l/m 0,0 km/h (0 Bft) NW 315 0 min 0 W/m 15,5 C 22,9 C 4,8 km/h (1 Bft)
09.08.2020 23:15 22,9 C 64 % 1014,4 hPa 0,0 l/m 0,0 km/h (0 Bft) N 0 0 min 0 W/m 15,7 C 22,9 C 0,0 km/h (0 Bft)
09.08.2020 23:10 23,1 C 63 % 1014,5 hPa 0,0 l/m 0,0 km/h (0 Bft) N 0 0 min 0 W/m 15,7 C 23,1 C 0,0 km/h (0 Bft)
09.08.2020 23:05 23,3 C 63 % 1014,5 hPa 0,0 l/m 0,0 km/h (0 Bft) N 0 0 min 0 W/m 15,9 C 23,3 C 0,0 km/h (0 Bft)
09.08.2020 23:00 23,5 C 62 % 1014,5 hPa 0,0 l/m 0,0 km/h (0 Bft) NW 315 0 min 0 W/m 15,8 C 23,5 C 0,0 km/h (0 Bft)
09.08.2020 22:55 23,8 C 61 % 1014,5 hPa 0,0 l/m 0,0 km/h (0 Bft) NW 316 0 min 0 W/m 15,8 C 23,8 C 0,0 km/h (0 Bft)
09.08.2020 22:50 24,0 C 60 % 1014,4 hPa 0,0 l/m 0,0 km/h (0 Bft) NW 316 0 min 0 W/m 15,7 C 24,0 C 0,0 km/h (0 Bft)
09.08.2020 22:45 24,2 C 60 % 1014,4 hPa 0,0 l/m 0,0 km/h (0 Bft) NW 316 0 min 0 W/m 15,9 C 24,2 C 0,0 km/h (0 Bft)
09.08.2020 22:40 24,3 C 59 % 1014,5 hPa 0,0 l/m 0,0 km/h (0 Bft) NW 316 0 min 0 W/m 15,8 C 24,3 C 0,0 km/h (0 Bft)
09.08.2020 22:35 24,4 C 58 % 1014,5 hPa 0,0 l/m 0,0 km/h (0 Bft) NW 315 0 min 0 W/m 15,6 C 24,4 C 0,0 km/h (0 Bft)
09.08.2020 22:30 24,6 C 58 % 1014,4 hPa 0,0 l/m 0,0 km/h (0 Bft) NW 316 0 min 0 W/m 15,8 C 24,6 C 0,0 km/h (0 Bft)
09.08.2020 22:25 24,7 C 57 % 1014,4 hPa 0,0 l/m 0,0 km/h (0 Bft) NW 316 0 min 0 W/m 15,6 C 24,7 C 0,0 km/h (0 Bft)
09.08.2020 22:20 24,9 C 57 % 1014,5 hPa 0,0 l/m 0,3 km/h (0 Bft) NW 316 0 min 0 W/m 15,8 C 24,9 C 6,4 km/h (2 Bft)
09.08.2020 22:15 25,1 C 56 % 1014,5 hPa 0,0 l/m 0,0 km/h (0 Bft) NW 317 0 min 0 W/m 15,7 C 25,1 C 0,0 km/h (0 Bft)
09.08.2020 22:10 25,2 C 55 % 1014,4 hPa 0,0 l/m 0,0 km/h (0 Bft) NW 317 0 min 0 W/m 15,5 C 25,2 C 0,0 km/h (0 Bft)
09.08.2020 22:05 25,4 C 55 % 1014,5 hPa 0,0 l/m 0,0 km/h (0 Bft) NW 317 0 min 0 W/m 15,7 C 25,4 C 0,0 km/h (0 Bft)
09.08.2020 22:00 25,6 C 54 % 1014,5 hPa 0,0 l/m 0,0 km/h (0 Bft) NW 317 0 min 0 W/m 15,6 C 25,6 C 0,0 km/h (0 Bft)
09.08.2020 21:55 25,8 C 54 % 1014,5 hPa 0,0 l/m 0,0 km/h (0 Bft) NW 317 0 min 0 W/m 15,8 C 25,8 C 0,0 km/h (0 Bft)
09.08.2020 21:50 25,9 C 53 % 1014,5 hPa 0,0 l/m 0,0 km/h (0 Bft) NW 317 0 min 0 W/m 15,6 C 25,9 C 0,0 km/h (0 Bft)
09.08.2020 21:45 26,1 C 52 % 1014,4 hPa 0,0 l/m 0,0 km/h (0 Bft) NW 317 0 min 0 W/m 15,5 C 26,1 C 0,0 km/h (0 Bft)
09.08.2020 21:40 26,3 C 52 % 1014,4 hPa 0,0 l/m 0,1 km/h (0 Bft) NW 317 0 min 0 W/m 15,6 C 26,3 C 4,8 km/h (1 Bft)
09.08.2020 21:35 26,3 C 51 % 1014,5 hPa 0,0 l/m 0,0 km/h (0 Bft) NW 317 0 min 0 W/m 15,3 C 26,3 C 1,6 km/h (1 Bft)
09.08.2020 21:30 26,3 C 51 % 1014,6 hPa 0,0 l/m 0,0 km/h (0 Bft) NW 317 0 min 0 W/m 15,3 C 26,3 C 1,6 km/h (1 Bft)
09.08.2020 21:25 26,4 C 51 % 1014,6 hPa 0,0 l/m 0,0 km/h (0 Bft) NW 317 0 min 0 W/m 15,4 C 26,4 C 0,0 km/h (0 Bft)
09.08.2020 21:20 26,5 C 51 % 1014,5 hPa 0,0 l/m 0,0 km/h (0 Bft) NW 317 0 min 0 W/m 15,5 C 26,5 C 0,0 km/h (0 Bft)
09.08.2020 21:15 26,6 C 51 % 1014,5 hPa 0,0 l/m 0,0 km/h (0 Bft) NW 317 0 min 0 W/m 15,6 C 26,6 C 0,0 km/h (0 Bft)
09.08.2020 21:10 26,8 C 50 % 1014,5 hPa 0,0 l/m 0,0 km/h (0 Bft) NW 317 0 min 0 W/m 15,5 C 26,8 C 0,0 km/h (0 Bft)
09.08.2020 21:05 26,9 C 50 % 1014,5 hPa 0,0 l/m 0,0 km/h (0 Bft) NW 317 0 min 0 W/m 15,6 C 26,9 C 0,0 km/h (0 Bft)
09.08.2020 21:00 27,1 C 49 % 1014,5 hPa 0,0 l/m 0,0 km/h (0 Bft) NW 317 0 min 0 W/m 15,4 C 27,1 C 0,0 km/h (0 Bft)
09.08.2020 20:55 27,3 C 49 % 1014,5 hPa 0,0 l/m 0,0 km/h (0 Bft) NW 317 0 min 0 W/m 15,6 C 27,3 C 0,0 km/h (0 Bft)
09.08.2020 20:50 27,5 C 48 % 1014,5 hPa 0,0 l/m 0,0 km/h (0 Bft) NW 317 0 min 0 W/m 15,5 C 27,5 C 0,0 km/h (0 Bft)
09.08.2020 20:45 27,8 C 48 % 1014,5 hPa 0,0 l/m 0,0 km/h (0 Bft) NW 317 0 min 0 W/m 15,8 C 27,8 C 0,0 km/h (0 Bft)
09.08.2020 20:40 27,9 C 47 % 1014,5 hPa 0,0 l/m 0,0 km/h (0 Bft) NW 317 0 min 5 W/m 15,5 C 27,9 C 1,6 km/h (1 Bft)
09.08.2020 20:35 28,2 C 47 % 1014,5 hPa 0,0 l/m 0,0 km/h (0 Bft) NW 317 0 min 9 W/m 15,8 C 28,2 C 0,0 km/h (0 Bft)
09.08.2020 20:30 28,3 C 47 % 1014,5 hPa 0,0 l/m 0,1 km/h (0 Bft) NW 317 0 min 12 W/m 15,9 C 28,3 C 3,2 km/h (1 Bft)
09.08.2020 20:25 28,5 C 47 % 1014,5 hPa 0,0 l/m 0,5 km/h (0 Bft) NW 317 0 min 18 W/m 16,1 C 28,5 C 6,4 km/h (2 Bft)
09.08.2020 20:20 28,7 C 46 % 1014,6 hPa 0,0 l/m 0,0 km/h (0 Bft) NW 319 0 min 28 W/m 15,9 C 28,7 C 1,6 km/h (1 Bft)
09.08.2020 20:15 28,8 C 46 % 1014,7 hPa 0,0 l/m 0,0 km/h (0 Bft) NW 319 0 min 40 W/m 16,0 C 28,8 C 1,6 km/h (1 Bft)
09.08.2020 20:10 29,0 C 46 % 1014,7 hPa 0,0 l/m 0,0 km/h (0 Bft) NW 319 0 min 47 W/m 16,2 C 29,0 C 0,0 km/h (0 Bft)
09.08.2020 20:05 29,1 C 45 % 1014,7 hPa 0,0 l/m 0,8 km/h (0 Bft) NW 319 0 min 62 W/m 15,9 C 29,1 C 6,4 km/h (2 Bft)
09.08.2020 20:00 29,1 C 44 % 1014,6 hPa 0,0 l/m 0,4 km/h (0 Bft) NW 323 0 min 69 W/m 15,6 C 29,1 C 6,4 km/h (2 Bft)
09.08.2020 19:55 29,2 C 43 % 1014,7 hPa 0,0 l/m 0,3 km/h (0 Bft) NW 323 0 min 70 W/m 15,3 C 29,2 C 6,4 km/h (2 Bft)
09.08.2020 19:50 29,2 C 43 % 1014,5 hPa 0,0 l/m 1,3 km/h (1 Bft) NW 323 0 min 74 W/m 15,3 C 29,2 C 9,7 km/h (2 Bft)
09.08.2020 19:45 29,3 C 43 % 1014,5 hPa 0,0 l/m 3,4 km/h (1 Bft) NW 326 0 min 70 W/m 15,4 C 29,3 C 14,5 km/h (3 Bft)
09.08.2020 19:40 29,3 C 43 % 1014,5 hPa 0,0 l/m 1,0 km/h (0 Bft) NW 315 0 min 70 W/m 15,4 C 29,3 C 9,7 km/h (2 Bft)
09.08.2020 19:35 29,3 C 44 % 1014,4 hPa 0,0 l/m 0,7 km/h (0 Bft) N-NW 327 0 min 74 W/m 15,8 C 29,3 C 6,4 km/h (2 Bft)
09.08.2020 19:30 29,3 C 45 % 1014,4 hPa 0,0 l/m 0,9 km/h (0 Bft) N-NW 329 0 min 74 W/m 16,1 C 29,3 C 9,7 km/h (2 Bft)
09.08.2020 19:25 29,3 C 45 % 1014,4 hPa 0,0 l/m 0,8 km/h (0 Bft) NW 318 0 min 105 W/m 16,1 C 29,3 C 6,4 km/h (2 Bft)
09.08.2020 19:20 29,3 C 45 % 1014,4 hPa 0,0 l/m 1,8 km/h (1 Bft) N-NW 336 0 min 118 W/m 16,1 C 29,3 C 9,7 km/h (2 Bft)
09.08.2020 19:15 29,4 C 46 % 1014,5 hPa 0,0 l/m 1,3 km/h (1 Bft) NW 323 0 min 142 W/m 16,5 C 29,4 C 8,0 km/h (2 Bft)
09.08.2020 19:10 29,4 C 46 % 1014,4 hPa 0,0 l/m 2,5 km/h (1 Bft) N-NW 331 0 min 121 W/m 16,5 C 29,4 C 12,9 km/h (3 Bft)
09.08.2020 19:05 29,6 C 45 % 1014,5 hPa 0,0 l/m 2,8 km/h (1 Bft) N-NW 329 0 min 123 W/m 16,4 C 29,6 C 9,7 km/h (2 Bft)
09.08.2020 19:00 29,6 C 45 % 1014,5 hPa 0,0 l/m 1,3 km/h (1 Bft) NW 326 0 min 146 W/m 16,4 C 29,6 C 8,0 km/h (2 Bft)
_ Min-Zeit 03:45 17:50 18:10 - 20:10 - - - - 19:50 03:45 20:10
Minimum _ 20,5 C 39 % 1011,9 hPa - 0,0 km/h (0 Bft) - - - - 15,3 C 20,5 C 0,0 km/h (0 Bft)
_ Max-Zeit 18:00 03:45 00:30 19:00 10:35 - - 08:45 10:55 16:15 18:05 10:35
Maximum _ 32,3 C 74 % 1014,9 hPa 0,0 l/m 8,8 km/h
SO (2 Bft)
- - 5 min 759 W/m 20,2 C 32,3 C 22,5 km/h
O-SO (4 Bft)
Durchschnitt _ 26,0 C 58 % 1014,1 hPa #0,0 l/m 1,3 km/h (1 Bft) N-NW - #9:05 h 249 W/m 16,9 C 26,0 C 5,7 km/h (2 Bft)